Zurück zum Katalog

SPACEMOBILE-008

AktivKommunikationVLEO
NORAD 69589·PAYLOAD·🇺🇸 United States

Gestartet Jun 17, 2026 von Cape Canaveral Space Force Station

Loading…

Nächste Überflüge (nächste 24 Stunden)

TLE

AktuellSource: CelesTrak SupGP

Epoche: Sep 14, 2026, 10:53 UTC

1 69589C 26139A   26257.45361111  .00004035  00000+0  22560-3 0  2578
2 69589  52.9938 217.2486 0002597 223.4130 112.3042 15.12973660    17

Verfolge SPACEMOBILE-008 in Echtzeit mit AllMySat

Download on the App Store